Simultaneous Nadir Overpasses (SNOs) Predictions

Prediction of SNOs between GOES-16 and TERRA Satellite Orbit:

Table of predicted SNOs for the next 14.0 days since TLE Epoch: 5/24/2017
Index Date Time (GOES-16) GOES-16 Lat,Lon TERRA Lat,Lon Distance(km) Time Diff (sec)
1 05/24/2017 16:28:29 -0.01, -89.49 -0.09, -89.20 33.65 80
2 05/26/2017 16:16:17 0.00, -89.49 -0.68, -86.23 369.66 80
3 05/27/2017 04:37:42 -0.00, -89.48 -0.39, -91.43 221.13 80
4 05/29/2017 04:22:50 -0.01, -89.48 0.20, -88.47 115.14 80
5 05/29/2017 16:44:06 0.01, -89.48 0.87, -93.63 470.90 80
6 05/31/2017 04:10:39 -0.01, -89.49 0.84, -85.51 451.82 80
7 05/31/2017 16:31:54 0.01, -89.49 0.28, -90.66 134.02 80
8 06/02/2017 16:22:23 0.01, -89.50 -0.36, -87.71 203.55 80
9 06/03/2017 04:43:46 -0.01, -89.51 -0.76, -92.90 386.31 80
10 06/05/2017 04:31:35 -0.01, -89.52 -0.12, -89.94 48.21 80
11 06/07/2017 04:16:45 -0.02, -89.54 0.52, -86.99 290.22 80




NCC Satellite Simultaneous Nadir Overpasses (SNOs) Prediction Service
